[[{"header":{"parameterUnit":"m.s-1","parameterCategory":1,"la1":30.2991,"la2":30.254,"lo1":-89.0895,"lo2":-89.0444,"dy":0.0017,"dx":0.0017,"nx":28,"ny":28,"refTime":"2025-11-15T09:00:00:Z","depth":0,"parameterNumber":2,"parameterNumberName":"U-component_of_WINDS"},"data":[0,0,0,0,0,0,0,0,0,0,0,0,0,0,0,0,0,0,0,0,0,0,0,0,0,0,0,0,0,0,0,0,0,0,0,0,0,0,0,0,0,0,0,0,0,0,0,0,0,0,0,0,0,0,0,0,0,0,0.8574,0.8576,0,0.882,0.8822,0.8825,0.8923,0.8922,0.8922,0.8921,0.9177,0.9184,0.9191,0,0,0,0,0,0,0,0,0,0,0,0,0,0.8193,0.8199,0.8573,0.8577,0.858,0.8819,0.8822,0.8826,0.8923,0.8922,0.8922,0.8921,0.9175,0.9183,0.9192,0,0,0,0,0,0,0,0,0,0,0,0,0,0.839,0.8201,0.8573,0.8657,0.8667,0.8818,0.8823,0.8827,0.8923,0.8922,0.8921,0.8921,0.9172,0.9182,0.9193,0.9281,0,0,0.9227,0.9232,0,0,0,0,0,0,0,0,0.8379,0.8404,0.8642,0.8651,0.8663,0.884,0.8782,0.8979,0.8924,0.8826,0.8921,0.892,0.9066,0.9085,0.9134,0.9293,0.9304,0.9228,0.9235,0.924,0.9243,0,0,0,0,0,0,0,0.8365,0.8394,0.8671,0.8645,0.8658,0.8684,0.8711,0.882,0.8948,0.8835,0.8842,0.887,0.9071,0.9123,0.9141,0.9307,0.9228,0.9238,0.9245,0.9249,0.9552,0.9553,0,0,0,0,0,0,0.8337,0.8382,0.8663,0.8678,0.8515,0.8691,0.8722,0.8784,0.8947,0.8971,0.887,0.8873,0.9104,0.9127,0.915,0.9264,0.924,0.925,0.9256,0.955,0.9552,0.9553,0,0,0,0,0,0,0.8328,0.8361,0.8653,0.8532,0.8572,0.8699,0.8768,0.8789,0.8841,0.8974,0.8998,0.8899,0.9105,0.9134,0.9247,0.9274,0.9255,0.9265,0.9549,0.9551,0.9553,0.9491,0,0,0,0,0,0,0.8317,0.8357,0.8391,0.8532,0.8578,0.8745,0.877,0.8795,0.8859,0.8866,0.9008,0.903,0.9106,0.923,0.9258,0.9289,0.9274,0.9547,0.9549,0.9552,0.9491,0.9491,0.949,0,0,0,0,0,0.8303,0.8364,0.8392,0.8425,0.8622,0.8746,0.8773,0.8857,0.8861,0.8896,0.8982,0.9026,0.9266,0.9241,0.9274,0.9308,0.9545,0.9549,0.9552,0.9492,0.9491,0.949,0,0,0,0,0,0,0.8224,0.8384,0.8417,0.8526,0.8621,0.8763,0.881,0.8854,0.8952,0.8954,0.9056,0.9088,0.9192,0.9262,0.9231,0.9401,0.9409,0.9419,0.9352,0.9353,0.9352,0.9334,0.9283,0,0,0,0,0,0.8219,0.8305,0.8442,0.8524,0.8571,0.8682,0.8739,0.8796,0.89,0.8942,0.9036,0.9136,0.9235,0.9298,0.9396,0.9502,0.9535,0.9541,0.9541,0.954,0.9547,0.9609,0.9614,0.9564,0.9564,0.9563,0,0,0.821,0.8308,0.8357,0.8511,0.8592,0.8681,0.8715,0.8808,0.8875,0.8956,0.9069,0.9141,0.926,0.937,0.9423,0.9431,0.9568,0.9544,0.9542,0.955,0.9613,0.9618,0.9622,0.9566,0.9565,0.9565,0,0,0.8239,0.8322,0.84,0.848,0.8602,0.8675,0.8694,0.8829,0.888,0.8994,0.9057,0.9139,0.9306,0.9389,0.9452,0.9512,0.9557,0.9541,0.9539,0.9599,0.9603,0.9607,0.9629,0.9636,0.9548,0.9548,0.9548,0,0.8213,0.8348,0.8435,0.8524,0.859,0.8667,0.8748,0.8822,0.897,0.9014,0.902,0.9232,0.9318,0.9448,0.9463,0.9511,0.9537,0.9526,0.9595,0.96,0.9605,0.9628,0.9636,0.9546,0.9546,0.9546,0.9546,0,0.831,0.8403,0.8452,0.8591,0.8663,0.8747,0.8849,0.8911,0.8962,0.9035,0.9151,0.9256,0.9377,0.9412,0.9463,0.955,0.9551,0.9575,0.9585,0.9606,0.9629,0.9638,0.9542,0.9543,0.9544,0.9544,0,0,0.8298,0.8483,0.85,0.8564,0.8704,0.8778,0.8866,0.8983,0.9035,0.9135,0.9212,0.9352,0.9374,0.9446,0.9507,0.9559,0.9601,0.9577,0.9581,0.9578,0.9706,0.9687,0.9696,0.9631,0.9633,0.9635,0.9696,0,0.8346,0.8506,0.8587,0.8712,0.88,0.8873,0.895,0.9045,0.9116,0.9201,0.928,0.9378,0.9399,0.9444,0.9498,0.9584,0.9628,0.9581,0.9706,0.9709,0.9674,0.9708,0.9689,0.9742,0.9705,0.9707,0.9708,0,0.8424,0.8521,0.8655,0.8784,0.8824,0.8892,0.9006,0.9086,0.9195,0.9243,0.9323,0.9383,0.948,0.9482,0.9619,0.9585,0.9641,0.9691,0.9695,0.971,0.971,0.9725,0.9761,0.9769,0.9723,0.9722,0.9721,0,0.8402,0.8567,0.8668,0.8721,0.8874,0.892,0.8987,0.9095,0.916,0.926,0.9304,0.9414,0.9475,0.9559,0.9648,0.9641,0.9776,0.9785,0.982,0.9817,0.9845,0.9843,0.9891,0.988,0.9879,0.9879,0.9879,0,0.8449,0.8528,0.866,0.8722,0.8814,0.8907,0.8995,0.9067,0.9163,0.9242,0.9313,0.9386,0.9497,0.9585,0.9654,0.9757,0.9784,0.9827,0.9844,0.9821,0.9815,0.9859,0.9858,0.9882,0.9881,0.9881,0.988,0,0.844,0.8531,0.8647,0.8782,0.8818,0.888,0.8997,0.9061,0.9135,0.9234,0.9262,0.9379,0.9485,0.9581,0.9723,0.977,0.9875,0.9897,0.9838,0.9847,0.9877,0.9873,0.9956,0.9972,0.9948,0.9948,0.9948,0,0.8463,0.8526,0.8668,0.8725,0.8789,0.888,0.8947,0.9041,0.9108,0.9237,0.9286,0.9397,0.9491,0.9658,0.9757,0.9866,0.9891,0.9913,0.9908,0.9883,0.9893,0.9888,0.9895,0.9912,0.9912,0.9912,0.9912,0,0.8496,0.8538,0.863,0.8738,0.8815,0.8905,0.8998,0.9041,0.9153,0.9225,0.9333,0.9406,0.955,0.966,0.978,0.9851,0.99,0.9912,0.9926,0.9903,0.9866,0.9887,0.9836,0.991,0.991,0.991,0.991,0.991,0.8506,0.8564,0.8673,0.8774,0.8853,0.8937,0.9004,0.9086,0.9178,0.9301,0.9352,0.9462,0.9572,0.9737,0.9808,0.9897,0.9907,0.9926,0.9932,0.9935,0.9931,0.9851,0.9919,0.9919,0.9919,0.992,0.992,0,0.8543,0.8616,0.8707,0.8833,0.8913,0.895,0.9055,0.9119,0.9215,0.9312,0.9402,0.9528,0.9635,0.9741,0.9855,0.9906,0.9931,0.9932,0.993,0.9946,0.9916,0.9893,0.991,0.991,0.991,0.991,0.991,0.991,0.8571,0.8673,0.8728,0.887,0.8944,0.9051,0.9108,0.9187,0.9264,0.94,0.9489,0.9557,0.9659,0.978,0.988,0.9909,0.9948,0.9942,0.9977,0.9948,0.9948,0.9947,0.9926,0.995,0.995,1.0,1.0001,1.0001]},{"header":{"parameterUnit":"m.s-1","parameterCategory":1,"la1":30.2991,"la2":30.254,"lo1":-89.0895,"lo2":-89.0444,"dy":0.0017,"dx":0.0017,"nx":28,"ny":28,"refTime":"2025-11-15T09:00:00:Z","depth":0,"parameterNumber":3,"parameterNumberName":"V-component_of_WINDS"},"data":[0,0,0,0,0,0,0,0,0,0,0,0,0,0,0,0,0,0,0,0,0,0,0,0,0,0,0,0,0,0,0,0,0,0,0,0,0,0,0,0,0,0,0,0,0,0,0,0,0,0,0,0,0,0,0,0,0,0,0.7903,0.7903,0,0.7888,0.7887,0.7887,0.7847,0.7846,0.7846,0.7845,0.7834,0.7835,0.7835,0,0,0,0,0,0,0,0,0,0,0,0,0,0.7901,0.7902,0.7903,0.7903,0.7903,0.7888,0.7887,0.7887,0.7847,0.7846,0.7845,0.7844,0.7834,0.7835,0.7835,0,0,0,0,0,0,0,0,0,0,0,0,0,0.7896,0.7902,0.7903,0.7881,0.7879,0.7888,0.7887,0.7887,0.7848,0.7846,0.7845,0.7844,0.7834,0.7835,0.7835,0.7866,0,0,0.7838,0.7838,0,0,0,0,0,0,0,0,0.7896,0.7896,0.7884,0.7882,0.788,0.7868,0.7883,0.788,0.7848,0.786,0.7845,0.7843,0.7847,0.7846,0.7847,0.7866,0.7865,0.7838,0.7838,0.7839,0.7839,0,0,0,0,0,0,0,0.7897,0.7896,0.7897,0.7884,0.7882,0.7873,0.7871,0.7882,0.7861,0.7859,0.7856,0.7854,0.7845,0.7846,0.7846,0.7865,0.7838,0.7839,0.7839,0.7839,0.7907,0.7909,0,0,0,0,0,0,0.79,0.7897,0.7898,0.7897,0.7885,0.7874,0.7871,0.7873,0.7861,0.7857,0.7855,0.7852,0.7845,0.7845,0.7846,0.788,0.7839,0.7839,0.784,0.7906,0.7908,0.7909,0,0,0,0,0,0,0.79,0.79,0.7898,0.7896,0.7895,0.7875,0.7878,0.7874,0.7874,0.7858,0.7854,0.7859,0.7844,0.7844,0.7861,0.7879,0.784,0.7841,0.7905,0.7907,0.7908,0.7949,0,0,0,0,0,0,0.79,0.79,0.7911,0.7896,0.7895,0.7913,0.7879,0.7874,0.7875,0.7871,0.7861,0.7858,0.7843,0.786,0.7862,0.7879,0.7841,0.7903,0.7905,0.7908,0.7946,0.7953,0.7958,0,0,0,0,0,0.79,0.7925,0.7912,0.7912,0.7908,0.7914,0.7913,0.7894,0.7876,0.7888,0.7877,0.7858,0.7877,0.7862,0.7863,0.7882,0.7902,0.7905,0.7908,0.7944,0.7951,0.7958,0,0,0,0,0,0,0.7945,0.7923,0.7908,0.7929,0.7923,0.7907,0.7921,0.7903,0.7904,0.79,0.7878,0.7876,0.7895,0.789,0.7874,0.791,0.7886,0.7889,0.7913,0.792,0.7926,0.7927,0.7842,0,0,0,0,0,0.7957,0.7962,0.7943,0.7963,0.796,0.7941,0.7943,0.7928,0.7922,0.792,0.7911,0.7907,0.7912,0.7916,0.7919,0.7945,0.7942,0.7959,0.7964,0.7969,0.7973,0.7985,0.7992,0.7919,0.7919,0.7919,0,0,0.7982,0.7971,0.7976,0.7971,0.7965,0.7972,0.7939,0.7948,0.7953,0.7922,0.7936,0.7929,0.7924,0.7944,0.7953,0.7941,0.7992,0.7973,0.7977,0.7978,0.7989,0.7995,0.8002,0.7921,0.7921,0.792,0,0,0.8032,0.8023,0.8038,0.8032,0.8022,0.8009,0.8013,0.7999,0.7992,0.8005,0.7982,0.7988,0.7997,0.7993,0.7992,0.8038,0.8021,0.804,0.807,0.8082,0.8088,0.8093,0.8109,0.8115,0.8043,0.8043,0.8043,0,0.8065,0.8072,0.8049,0.8058,0.8057,0.8027,0.8042,0.8038,0.8031,0.8031,0.8017,0.8025,0.802,0.8039,0.8049,0.805,0.8054,0.8041,0.8089,0.8094,0.8098,0.8113,0.8119,0.8046,0.8045,0.8045,0.8045,0,0.8113,0.8119,0.8132,0.8123,0.8124,0.8136,0.8115,0.8119,0.8104,0.8092,0.8105,0.8097,0.8097,0.8101,0.8087,0.8118,0.811,0.8093,0.8068,0.8108,0.8121,0.8127,0.8049,0.8048,0.8047,0.8047,0,0,0.8192,0.8168,0.8173,0.8168,0.8154,0.8159,0.817,0.8168,0.8171,0.8167,0.8176,0.8183,0.8166,0.8165,0.8151,0.8161,0.8197,0.8143,0.8142,0.8153,0.8229,0.8242,0.8249,0.8185,0.8186,0.8187,0.8229,0,0.8238,0.8253,0.8232,0.8253,0.8257,0.8228,0.8237,0.823,0.8219,0.8223,0.8211,0.8216,0.8194,0.8193,0.8202,0.8191,0.8212,0.8187,0.8194,0.8194,0.8196,0.8256,0.827,0.8311,0.8235,0.8236,0.8236,0,0.8294,0.8289,0.831,0.8293,0.8294,0.8303,0.8299,0.8302,0.8294,0.8285,0.8283,0.8265,0.8275,0.825,0.8264,0.8248,0.8249,0.8244,0.8245,0.8245,0.8218,0.8258,0.8324,0.833,0.8244,0.8244,0.8243,0,0.8348,0.8348,0.836,0.8356,0.8337,0.8344,0.8337,0.8326,0.8326,0.8323,0.8323,0.8322,0.8322,0.8322,0.8304,0.8287,0.832,0.8294,0.8313,0.8314,0.8322,0.8322,0.8389,0.8323,0.8323,0.8323,0.8322,0,0.8402,0.8416,0.8383,0.8391,0.8405,0.838,0.8396,0.8386,0.8377,0.8382,0.8357,0.8363,0.8339,0.8343,0.8329,0.8342,0.8343,0.8336,0.8333,0.8338,0.8339,0.8339,0.8336,0.8324,0.8324,0.8323,0.8323,0,0.8465,0.8444,0.8455,0.8435,0.843,0.8442,0.8425,0.8432,0.8418,0.8425,0.8426,0.8405,0.8408,0.839,0.839,0.8381,0.8401,0.8392,0.8403,0.84,0.8421,0.8419,0.849,0.8498,0.8427,0.8428,0.8429,0,0.8501,0.851,0.849,0.8491,0.8484,0.8486,0.8485,0.8461,0.8461,0.8451,0.8459,0.8459,0.8458,0.8464,0.845,0.8449,0.8441,0.8465,0.8441,0.8446,0.8441,0.844,0.8441,0.8471,0.8472,0.8473,0.8473,0,0.8565,0.8554,0.8552,0.8547,0.8546,0.8541,0.8535,0.8537,0.8511,0.8512,0.8514,0.8513,0.8511,0.8512,0.8508,0.8502,0.8484,0.8481,0.8485,0.8492,0.8497,0.8494,0.8417,0.848,0.8479,0.8478,0.8478,0.8478,0.8616,0.8622,0.8608,0.8607,0.8599,0.8593,0.8598,0.8584,0.8584,0.858,0.8566,0.8569,0.856,0.8553,0.8548,0.8551,0.8539,0.8546,0.8547,0.8549,0.8553,0.8496,0.855,0.855,0.855,0.855,0.8549,0,0.8679,0.8668,0.8667,0.8657,0.8657,0.8637,0.8628,0.8629,0.8632,0.8624,0.8622,0.8623,0.8623,0.8609,0.8607,0.8612,0.8604,0.8613,0.8612,0.8611,0.8564,0.856,0.8619,0.8619,0.8619,0.8619,0.8619,0.8619,0.8711,0.8721,0.8708,0.8713,0.8702,0.8704,0.8701,0.8695,0.8688,0.869,0.8689,0.8678,0.8668,0.8664,0.8664,0.8659,0.866,0.8672,0.8665,0.8621,0.8614,0.8608,0.8604,0.8672,0.8672,0.8712,0.8712,0.8712]}]]